Barrow, AK

9:04 AM AKDT on June 19, 2018 (GMT -0800)
Wiley Post-Will Rogers Memorial

Weather History for PABR - November, 2017

Change the Weather History Date:

Monday, November 13, 2017

  Actual Average Record
Temperature  
Mean Temperature 24 °F 1 °F  
Max Temperature 32 °F 7 °F 35 °F (2014)
Min Temperature 15 °F -4 °F -29 °F (1988)
Degree Days  
Heating Degree Days 41 64  
Month to date heating degree days 393 790  
Since 1 July heating degree days 3893 4813  
Cooling Degree Days 0 0  
Month to date cooling degree days 0 0  
Year to date cooling degree days 0 0  
Moisture  
Dew Point 20 °F    
Average Humidity 82    
Maximum Humidity 96    
Minimum Humidity 66    
Precipitation  
Precipitation T in 0.00 in 0.15 in (1965)
Month to date precipitation 0.64 0.10  
Year to date precipitation 7.68 4.28  
Snow  
Snow T in 0.20 in 4.10 in (1943)
Month to date snowfall 4.3 2.9  
Since 1 July snowfall 12.2 17.5  
Since 1 September snowfall 11.4 16.4  
Snow Depth 4.00 in    
Sea Level Pressure  
Sea Level Pressure 30.27 in    
Wind  
Wind Speed 16 mph (NE)    
Max Wind Speed 23 mph    
Max Gust Speed 31 mph    
Visibility 7 miles    
Events Snow    
T = Trace of Precipitation, MM = Missing Value Source: NWS Daily Summary

Daily Weather History Graph

Daily Weather History Graph

Search for Another Location

Airport or City:

Astronomy

Nov. 13, 2017 Rise Set
Actual Time 11:40 AM AKST 2:41 PM AKST
Civil Twilight 9:46 AM AKST 4:35 PM AKST
Nautical Twilight 8:17 AM AKST 6:03 PM AKST
Astronomical Twilight 7:00 AM AKST 7:20 PM AKST
Moon 2:35 AM AKST (11/13) 4:33 PM AKST (11/13)
Length of Visible Light 6h 49m
Length of Day
3h 01m
Waning Crescent, 20% of the Moon is Illuminated
Nov 13
Waning Crescent
Nov 18
New
Nov 26
First Quarter
Dec 3
Full
Dec 9
Last Quarter

Hourly Weather History & Observations

Time (AKST) Temp. Windchill Dew Point Humidity Pressure Visibility Wind Dir Wind Speed Gust Speed Precip Events Conditions
12:04 AM 32.0 °F 20.1 °F 30.9 °F 96% 29.88 in 1.8 mi NNE 19.6 mph - 0.00 in Snow Light Snow
12:25 AM 30.9 °F 18.1 °F 30.0 °F 96% 29.91 in 2.0 mi NNE 21.9 mph - 0.00 in Snow Light Snow
12:39 AM 30.9 °F 18.1 °F 28.9 °F 92% 29.93 in 2.5 mi NNE 21.9 mph - 0.00 in Snow Light Snow
12:44 AM 30.9 °F 18.1 °F 28.9 °F 92% 29.94 in 3.0 mi NNE 21.9 mph - 0.00 in Snow Light Snow
12:53 AM 30.9 °F 18.1 °F 28.0 °F 89% 29.95 in 2.5 mi NNE 21.9 mph - 0.00 in Snow Light Snow
1:00 AM 30.0 °F 17.9 °F 28.9 °F 96% 29.96 in 1.8 mi NNE 18.4 mph - 0.00 in Snow Light Snow
1:05 AM 30.0 °F 17.5 °F 28.9 °F 96% 29.96 in 1.2 mi NNE 19.6 mph - 0.01 in Snow Light Snow
1:11 AM 30.0 °F 16.9 °F 28.0 °F 92% 29.97 in 2.0 mi NNE 21.9 mph - 0.01 in Snow Light Snow
1:30 AM 30.0 °F 17.5 °F 27.0 °F 88% 29.99 in 3.0 mi NNE 19.6 mph 31.1 mph 0.01 in Snow Light Snow
1:53 AM 30.0 °F 16.6 °F 27.0 °F 88% 30.02 in 3.0 mi NNE 23.0 mph 27.6 mph 0.01 in Snow Light Snow
2:00 AM 28.9 °F 15.4 °F 27.0 °F 92% 30.02 in 2.5 mi NNE 21.9 mph - 0.00 in Snow Light Snow
2:10 AM 28.9 °F 15.4 °F 27.0 °F 92% 30.03 in 4.0 mi NNE 21.9 mph - 0.00 in Snow Light Snow
2:53 AM 28.9 °F 16.1 °F 25.0 °F 85% 30.08 in 6.0 mi NNE 19.6 mph - 0.00 in Snow Light Snow
3:38 AM 28.9 °F 16.5 °F 24.1 °F 82% 30.12 in 10.0 mi NNE 18.4 mph - 0.00 in   Overcast
3:53 AM 28.9 °F 16.9 °F 24.1 °F 82% 30.14 in 9.0 mi NNE 17.3 mph - 0.00 in   Overcast
4:53 AM 28.0 °F 17.0 °F 24.1 °F 85% 30.18 in 8.0 mi NNE 13.8 mph - 0.00 in Snow Light Snow
5:53 AM 28.0 °F 17.0 °F 21.0 °F 75% 30.23 in 9.0 mi NNE 13.8 mph - 0.00 in Snow Blowing Snow
6:53 AM 27.0 °F 15.2 °F 19.9 °F 75% 30.27 in 8.0 mi North 15.0 mph - 0.00 in Snow Light Snow
7:53 AM 27.0 °F 15.6 °F 19.0 °F 72% 30.31 in 10.0 mi North 13.8 mph - 0.00 in Snow Blowing Snow
8:53 AM 26.1 °F 15.6 °F 18.0 °F 71% 30.34 in 10.0 mi North 11.5 mph - N/A Snow Blowing Snow
9:53 AM 26.1 °F 14.5 °F 17.1 °F 69% 30.37 in 10.0 mi NNE 13.8 mph - N/A Snow Blowing Snow
10:53 AM 26.1 °F 16.2 °F 16.0 °F 66% 30.39 in 10.0 mi NNE 10.4 mph - N/A Snow Blowing Snow
11:53 AM 25.0 °F 15.5 °F 17.1 °F 72% 30.41 in 10.0 mi NE 9.2 mph - N/A Snow Blowing Snow
12:53 PM 25.0 °F 16.3 °F 18.0 °F 75% 30.44 in 10.0 mi NE 8.1 mph - N/A Snow Blowing Snow
1:53 PM 26.1 °F 16.2 °F 17.1 °F 69% 30.46 in 10.0 mi NNE 10.4 mph - N/A Snow Blowing Snow
2:25 PM 25.0 °F 19.3 °F 16.0 °F 69% 30.46 in 10.0 mi NNE 4.6 mph - N/A   Overcast
2:53 PM 23.0 °F 17.0 °F 15.1 °F 72% 30.47 in 10.0 mi ENE 4.6 mph - N/A   Overcast
3:06 PM 23.0 °F 15.8 °F 15.1 °F 72% 30.47 in 10.0 mi NE 5.8 mph - N/A   Overcast
3:53 PM 19.0 °F 12.3 °F 12.9 °F 77% 30.49 in 10.0 mi East 4.6 mph - N/A   Mostly Cloudy
4:05 PM 19.9 °F 14.9 °F 14.0 °F 78% 30.48 in 10.0 mi East 3.5 mph - N/A   Mostly Cloudy
4:42 PM 17.1 °F 8.7 °F 12.9 °F 84% 30.49 in 10.0 mi ESE 5.8 mph - N/A   Mostly Cloudy
4:53 PM 17.1 °F 7.6 °F 12.9 °F 84% 30.50 in 10.0 mi SE 6.9 mph - N/A   Mostly Cloudy
5:53 PM 17.1 °F 5.8 °F 12.0 °F 81% 30.52 in 10.0 mi South 9.2 mph - N/A   Overcast
6:53 PM 15.1 °F 3.3 °F 12.0 °F 88% 30.53 in 10.0 mi South 9.2 mph - N/A   Overcast
7:53 PM 16.0 °F 5.3 °F 12.9 °F 88% 30.54 in 10.0 mi South 8.1 mph - N/A   Overcast
8:53 PM 17.1 °F 5.8 °F 12.9 °F 84% 30.54 in 10.0 mi South 9.2 mph - N/A   Overcast
9:53 PM 18.0 °F 6.9 °F 12.9 °F 81% 30.55 in 10.0 mi SW 9.2 mph - N/A   Overcast
10:53 PM 17.1 °F 5.0 °F 12.9 °F 84% 30.56 in 10.0 mi SSW 10.4 mph - N/A   Overcast
11:53 PM 18.0 °F 6.9 °F 14.0 °F 84% 30.56 in 10.0 mi SSW 9.2 mph - N/A   Overcast